Indianapolis International Airport
KIND : now visible

Airfield :











YOU CAN JOIN US ON...

 
LOGIN :

Register | Disclaimer

   EN    FR    IT 

 









Legend :    VFR   Marginal VFR   IFR   Intensive IFR   Very Intensive IFR
Visi :
Ceiling :
>= 8 km
>= 3000ft
5 to 8 km
1000 to 3000 ft
1500m to 5 km
500 to 1000 ft
800 to 1500m
200 to 500 ft
< 800m
< 200 ft
Symbols :   Thunderstorms  Fog  Heavy snow  Heavy precipitations  Wind > 20 kt






- Airport Elevation : 797 ft
- IATA code : IND


KIND - Indianapolis International

CURRENT METAR :
  • 121754Z 03008KT 10SM FEW065 15/00 A3040 RMK AO2 SLP295 T01500000 10156 20061 58007

EXPIRED METARs :
  • 121654Z 02008KT 10SM FEW065 14/00 A3041 RMK AO2 SLP299 T01440000
  • 121554Z 10005KT 10SM FEW033 14/M01 A3042 RMK AO2 SLP303 T01391011

TAF KIND
Valid from the 12 at 18:00 until the 14 at 00:00 UTC


121724Z 1218/1324 05011KT P6SM FEW050
FM130100 03007KT P6SM FEW250
KZID FIR / North America



MET'MAP, your aeronautical weather chart ! - Copyright ORBIFLY December 2007 - Disclaimer

ORBIFLY MET'MAP TEAM :

Programming & Development : Alexandra Zaïnal
Concept & original design : Baudouin d'Aumeries
Assistance for programming : Marc-Olivier Méhu
Technical & hardware support : Manuel Goepfert

Contact : metmap@orbifly.com




SOURCES & CREDITS :

   NOAA       Earth
Advisory